Volver al catálogo

STARLINK-11084

ActivoComunicacionesVLEO
NORAD 59717·PAYLOAD·🇺🇸 United States

Lanzado May 10, 2024 desde Vandenberg Space Force Base

Loading…

Próximos Pases (próximas 24 horas)

TLE

ActualizadoSource: CelesTrak SupGP

Época: Sep 14, 2026, 21:35 UTC

1 59717C 24088K   26257.89979167 -.00049581  00000+0 -40848-3 0  2571
2 59717  53.1559 113.3849 0001198  95.8736 199.7372 15.69730148    18

Sigue STARLINK-11084 en tiempo real con AllMySat

Download on the App Store